Quillayute, WA

9:15 AM PDT on September 24, 2017 (GMT -0700)
Quillayute

Weather History for KUIL - August, 2013

Change the Weather History Date:

Thursday, August 15, 2013

  Actual Average Record
Temperature  
Mean Temperature 64 °F 60 °F  
Max Temperature 71 °F 69 °F 91 °F (2012)
Min Temperature 56 °F 51 °F 42 °F (1986)
Degree Days  
Heating Degree Days 1 6  
Month to date heating degree days 35 78  
Since 1 June heating degree days 328 566  
Since 1 July heating degree days 148 272  
Cooling Degree Days 0 0  
Month to date cooling degree days 1 0  
Year to date cooling degree days 17 11  
Since 1 June cooling degree days 14 10  
Growing Degree Days 14 (Base 50)    
Moisture  
Dew Point 59 °F    
Average Humidity 77    
Maximum Humidity 93    
Minimum Humidity 61    
Precipitation  
Precipitation 0.02 in 0.08 in 0.95 in (1988)
Month to date precipitation 0.22 0.97  
Year to date precipitation 59.03 55.20  
Sea Level Pressure  
Sea Level Pressure 29.96 in    
Wind  
Wind Speed 2 mph (SSW)    
Max Wind Speed 8 mph    
Max Gust Speed 12 mph    
Visibility 6 miles    
Events Fog , Rain    
T = Trace of Precipitation, MM = Missing Value Source: NWS Daily Summary

Daily Weather History Graph

Daily Weather History Graph

Search for Another Location

Airport or City:

Trip Planner

Search our weather history database for the weather conditions in past years. The results will help you decide how hot, cold, wet, or windy it might be!

Date:

Astronomy

Aug. 15, 2013 Rise Set
Actual Time 6:13 AM PDT 8:30 PM PDT
Civil Twilight 5:39 AM PDT 9:04 PM PDT
Nautical Twilight 4:56 AM PDT 9:46 PM PDT
Astronomical Twilight 4:08 AM PDT 10:34 PM PDT
Moon 4:02 PM PDT (8/15) 12:20 AM PDT (8/15)
Length of Visible Light 15h 25m
Length of Day
14h 16m
Waxing Gibbous, 65% of the Moon is Illuminated
Aug 15
Waxing Gibbous
Aug 20
Full
Aug 28
Last Quarter
Sep 5
New
Sep 12
First Quarter

Hourly Weather History & Observations

Time (PDT) Temp. Dew Point Humidity Pressure Visibility Wind Dir Wind Speed Gust Speed Precip Events Conditions
12:02 AM 62.6 °F 59.0 °F 88% 29.95 in 1.8 mi SSW 3.5 mph - N/A   Overcast
12:11 AM 62.6 °F 59.0 °F 88% 29.95 in 1.2 mi SSW 4.6 mph - N/A   Overcast
12:23 AM 62.6 °F 59.0 °F 88% 29.95 in 1.2 mi Variable 4.6 mph - 0.01 in   Overcast
12:31 AM 62.6 °F 59.0 °F 88% 29.95 in 1.8 mi Calm Calm - 0.01 in   Overcast
12:53 AM 62.1 °F 59.0 °F 90% 29.95 in 1.8 mi South 5.8 mph - 0.01 in   Overcast
1:02 AM 62.6 °F 59.0 °F 88% 29.94 in 2.5 mi Calm Calm - N/A   Overcast
1:10 AM 62.6 °F 59.0 °F 88% 29.94 in 4.0 mi Calm Calm - N/A   Overcast
1:33 AM 62.6 °F 59.0 °F 88% 29.94 in 8.0 mi South 3.5 mph - N/A   Overcast
1:53 AM 62.1 °F 59.0 °F 90% 29.94 in 8.0 mi SSW 5.8 mph - N/A   Overcast
2:03 AM 62.6 °F 59.0 °F 88% 29.94 in 2.5 mi South 3.5 mph - N/A   Overcast
2:20 AM 62.6 °F 59.0 °F 88% 29.94 in 1.5 mi Calm Calm - N/A   Overcast
2:53 AM 62.1 °F 57.9 °F 86% 29.94 in 1.5 mi Calm Calm - N/A   Overcast
3:07 AM 62.6 °F 59.0 °F 88% 29.94 in 2.0 mi Calm Calm - N/A   Overcast
3:53 AM 62.1 °F 59.0 °F 90% 29.94 in 1.8 mi Variable 3.5 mph - N/A   Overcast
4:38 AM 60.8 °F 57.2 °F 88% 29.94 in 1.0 mi SW 3.5 mph - N/A   Overcast
4:53 AM 61.0 °F 57.9 °F 90% 29.94 in 1.0 mi SW 4.6 mph - N/A   Mist
5:07 AM 60.8 °F 57.2 °F 88% 29.94 in 0.5 mi SW 3.5 mph - N/A Fog Fog
5:23 AM 60.8 °F 57.2 °F 88% 29.93 in 1.5 mi SW 3.5 mph - N/A   Overcast
5:41 AM 60.8 °F 57.2 °F 88% 29.93 in 2.0 mi Calm Calm - N/A   Overcast
5:46 AM 60.8 °F 57.2 °F 88% 29.94 in 1.2 mi Calm Calm - N/A   Overcast
5:53 AM 60.1 °F 57.0 °F 90% 29.94 in 1.2 mi Calm Calm - N/A   Overcast
6:10 AM 60.8 °F 57.2 °F 88% 29.94 in 0.5 mi Calm Calm - N/A Fog Fog
6:31 AM 60.8 °F 57.2 °F 88% 29.94 in 0.2 mi Calm Calm - N/A Fog Fog
6:53 AM 61.0 °F 57.9 °F 90% 29.94 in 0.2 mi Calm Calm - N/A Fog Fog
7:16 AM 60.8 °F 57.2 °F 88% 29.95 in 0.5 mi Calm Calm - 0.01 in Fog Fog
7:26 AM 60.8 °F 57.2 °F 88% 29.95 in 0.2 mi Calm Calm - 0.01 in Fog Fog
7:51 AM 60.8 °F 57.2 °F 88% 29.95 in 0.5 mi Calm Calm - 0.01 in Fog Fog
7:53 AM 61.0 °F 57.9 °F 90% 29.95 in 0.5 mi Calm Calm - 0.01 in Fog Fog
8:27 AM 62.6 °F 59.0 °F 88% 29.95 in 1.2 mi Calm Calm - N/A   Overcast
8:37 AM 62.6 °F 59.0 °F 88% 29.95 in 0.5 mi Calm Calm - N/A Fog Fog
8:53 AM 63.0 °F 59.0 °F 87% 29.96 in 0.5 mi SSE 3.5 mph - N/A Fog Fog
9:04 AM 62.6 °F 59.0 °F 88% 29.96 in 1.5 mi Calm Calm - N/A   Overcast
9:13 AM 62.6 °F 60.8 °F 94% 29.96 in 2.5 mi Calm Calm - N/A   Overcast
9:20 AM 62.6 °F 60.8 °F 94% 29.96 in 4.0 mi Calm Calm - N/A   Overcast
9:32 AM 62.6 °F 60.8 °F 94% 29.96 in 8.0 mi South 3.5 mph - N/A   Overcast
9:53 AM 63.0 °F 60.1 °F 90% 29.96 in 9.0 mi SSW 3.5 mph - N/A   Overcast
10:46 AM 66.2 °F 60.8 °F 83% 29.96 in 10.0 mi South 8.1 mph - N/A   Overcast
10:53 AM 66.0 °F 60.1 °F 81% 29.96 in 10.0 mi SW 3.5 mph - N/A   Overcast
11:00 AM 66.2 °F 60.8 °F 83% 29.97 in 10.0 mi SSW 5.8 mph - N/A   Overcast
11:25 AM 66.2 °F 60.8 °F 83% 29.97 in 10.0 mi Variable 5.8 mph - N/A   Overcast
11:45 AM 66.2 °F 60.8 °F 83% 29.97 in 10.0 mi SW 5.8 mph - N/A   Overcast
11:53 AM 68.0 °F 60.1 °F 76% 29.97 in 10.0 mi SSW 5.8 mph - N/A   Overcast
12:17 PM 71.6 °F 60.8 °F 69% 29.98 in 10.0 mi South 6.9 mph - N/A   Mostly Cloudy
12:27 PM 69.8 °F 60.8 °F 73% 29.98 in 10.0 mi SSW 8.1 mph - N/A   Mostly Cloudy
12:36 PM 69.8 °F 60.8 °F 73% 29.97 in 10.0 mi SW 6.9 mph - N/A   Overcast
12:44 PM 69.8 °F 60.8 °F 73% 29.97 in 10.0 mi South 4.6 mph - N/A   Overcast
12:53 PM 68.0 °F 60.1 °F 76% 29.98 in 10.0 mi SSW 5.8 mph - N/A   Overcast
1:01 PM 66.2 °F 60.8 °F 83% 29.98 in 10.0 mi SSW 5.8 mph - N/A   Overcast
1:11 PM 66.2 °F 59.0 °F 78% 29.98 in 10.0 mi South 4.6 mph - N/A   Mostly Cloudy
1:53 PM 64.9 °F 60.1 °F 84% 29.99 in 7.0 mi South 4.6 mph - 0.00 in Rain Light Rain
2:09 PM 66.2 °F 60.8 °F 83% 29.99 in 7.0 mi SW 4.6 mph - 0.01 in Rain Light Rain
2:19 PM 64.4 °F 60.8 °F 88% 29.99 in 9.0 mi Calm Calm - 0.01 in Rain Light Rain
2:36 PM 66.2 °F 60.8 °F 83% 29.99 in 9.0 mi Calm Calm - 0.01 in   Overcast
2:48 PM 66.2 °F 60.8 °F 83% 29.99 in 10.0 mi SW 3.5 mph - 0.01 in   Overcast
2:53 PM 66.0 °F 60.1 °F 81% 29.99 in 10.0 mi Calm Calm - 0.01 in   Overcast
3:32 PM 69.8 °F 60.8 °F 73% 29.99 in 9.0 mi Variable 3.5 mph - N/A   Mostly Cloudy
3:53 PM 68.0 °F 60.1 °F 76% 29.99 in 10.0 mi Calm Calm - N/A   Overcast
4:09 PM 69.8 °F 59.0 °F 68% 29.99 in 10.0 mi SW 5.8 mph - N/A   Overcast
4:53 PM 69.1 °F 57.9 °F 68% 29.99 in 10.0 mi SW 5.8 mph - N/A   Overcast
5:53 PM 69.1 °F 55.9 °F 63% 29.99 in 10.0 mi SW 4.6 mph - N/A   Overcast
6:26 PM 68.0 °F 57.2 °F 68% 29.98 in 9.0 mi Variable 3.5 mph - N/A   Overcast
6:53 PM 66.9 °F 57.0 °F 70% 29.97 in 9.0 mi West 3.5 mph - N/A   Overcast
7:53 PM 64.9 °F 59.0 °F 81% 29.99 in 9.0 mi West 4.6 mph - N/A   Mostly Cloudy
8:53 PM 61.0 °F 57.0 °F 87% 30.00 in 9.0 mi Calm Calm - N/A   Clear
10:53 PM 57.0 °F 53.1 °F 87% 30.00 in 8.0 mi Calm Calm - N/A   Clear
11:53 PM 57.9 °F 54.0 °F 87% 29.98 in 8.0 mi Calm Calm - N/A   Clear